DW9584 Weather Reports


time (UTC)temp
F
wind
direction
speed
knots
gust
knots
rain 1hr
in
rain 24hr
in
rain mn
in
humidity
%
barometer
mb
20200803144100 86 131 0.0 0.9 0.00 0.00 0.00 61 1017.7
20200803143556 85 25 0.0 1.7 0.00 0.00 0.00 63 1017.6
20200803143115 85 107 0.0 1.7 0.00 0.00 0.00 63 1017.6
20200803142600 85 16 0.0 0.9 0.00 0.00 0.00 64 1017.6
20200803142056 85 15 0.0 0.9 0.00 0.00 0.00 64 1017.6
20200803141703 85 54 0.0 0.9 0.00 0.00 0.00 65 1017.7
20200803141056 85 50 0.0 0.9 0.00 0.00 0.00 64 1017.8
20200803140601 85 82 0.0 0.9 0.00 0.00 0.00 61 1017.8
20200803140128 85 160 0.0 0.9 0.00 0.00 0.00 65 1017.7
20200803135616 85 161 0.0 1.7 0.00 0.00 0.00 63 1017.8
20200803135053 85 236 0.0 1.7 0.00 0.00 0.00 64 1017.7
20200803134059 83 158 0.0 1.7 0.00 0.00 0.00 66 1017.7
20200803133604 82 200 0.0 1.7 0.00 0.00 0.00 67 1017.6
20200803133218 81 163 0.0 0.9 0.00 0.00 0.00 67 1017.5
20200803132557 81 356 0.0 0.9 0.00 0.00 0.00 69 1017.5
20200803132057 80 72 0.0 0.9 0.00 0.00 0.00 69 1017.5
20200803131730 80 97 0.0 0.0 0.00 0.00 0.00 70 1017.5
20200803131102 79 94 0.0 0.0 0.00 0.00 0.00 70 1017.5
20200803130621 79 104 0.0 0.9 0.00 0.00 0.00 70 1017.5
20200803130145 79 144 0.0 0.9 0.00 0.00 0.00 70 1017.5
20200803125556 79 41 0.0 0.9 0.00 0.00 0.00 70 1017.6
20200803125054 79 77 0.0 0.0 0.00 0.00 0.00 71 1017.4
20200803124058 80 45 0.0 0.9 0.00 0.00 0.00 72 1017.3
20200803123554 79 142 0.0 0.9 0.00 0.00 0.00 71 1017.3
20200803123155 79 153 0.0 0.9 0.00 0.00 0.00 73 1017.2
20200803122602 79 108 0.0 0.9 0.00 0.00 0.00 72 1017.3
20200803122052 79 109 0.0 0.9 0.00 0.00 0.00 72 1017.3
20200803121656 79 102 0.0 0.0 0.00 0.00 0.00 72 1017.1
20200803121058 79 98 0.0 0.0 0.00 0.00 0.00 74 1017.0
20200803120552 79 99 0.0 0.0 0.00 0.00 0.00 75 1017.2
20200803120212 78 98 0.0 0.0 0.00 0.00 0.00 76 1017.0
20200803115602 78 97 0.0 0.9 0.00 0.00 0.00 77 1017.0
20200803115049 77 356 0.0 0.0 0.00 0.00 0.00 81 1016.9
20200803114045 74 356 0.0 0.0 0.00 0.00 0.00 86 1016.9
20200803113604 74 356 0.0 0.0 0.00 0.00 0.00 86 1016.8
20200803113201 73 356 0.0 0.0 0.00 0.00 0.00 86 1016.8
20200803112559 73 357 0.0 0.0 0.00 0.00 0.00 87 1016.9
20200803112051 73 356 0.0 0.0 0.00 0.00 0.00 87 1016.7
20200803111616 73 356 0.0 0.0 0.00 0.00 0.00 86 1016.7
20200803111045 73 356 0.0 0.0 0.00 0.00 0.00 86 1016.6
20200803110614 73 357 0.0 0.0 0.00 0.00 0.00 86 1016.7
20200803110245 73 356 0.0 0.0 0.00 0.00 0.00 85 1016.6
20200803105559 73 356 0.0 0.0 0.00 0.00 0.00 85 1016.6
20200803105048 73 356 0.0 0.0 0.00 0.00 0.00 84 1016.5
20200803104052 73 356 0.0 0.0 0.00 0.00 0.00 84 1016.4
20200803103550 73 356 0.0 0.0 0.00 0.00 0.00 83 1016.2
20200803103055 73 356 0.0 0.0 0.00 0.00 0.00 83 1016.2
20200803102551 74 356 0.0 0.0 0.00 0.00 0.00 83 1016.2
20200803102049 74 356 0.0 0.0 0.00 0.00 0.00 83 1016.3
20200803101600 74 356 0.0 0.0 0.00 0.00 0.00 83 1016.2
20200803101047 74 356 0.0 0.0 0.00 0.00 0.00 82 1016.0
20200803100546 74 356 0.0 0.0 0.00 0.00 0.00 81 1015.6
20200803100046 74 356 0.0 0.0 0.00 0.00 0.00 82 1015.2
20200803095557 75 356 0.0 0.0 0.00 0.00 0.00 81 1015.1
20200803095048 75 356 0.0 0.0 0.00 0.00 0.00 80 1015.2
20200803094035 76 26 0.0 0.0 0.00 0.00 0.00 79 1015.3
20200803093535 77 26 0.0 0.9 0.00 0.00 0.00 78 1015.4
20200803093114 77 25 0.0 0.9 0.00 0.00 0.00 76 1015.5
20200803092548 76 50 0.0 0.9 0.00 0.00 0.00 76 1015.4
20200803092035 76 100 0.0 0.0 0.00 0.00 0.00 78 1015.5
20200803091538 76 98 0.0 0.0 0.00 0.00 0.00 78 1015.4
20200803091033 76 319 0.0 0.0 0.00 0.00 0.00 78 1015.2
20200803090533 76 319 0.0 0.9 0.00 0.00 0.00 79 1015.2
20200803090156 76 319 0.0 0.9 0.00 0.00 0.00 79 1015.1
20200803085557 76 171 0.0 0.0 0.00 0.00 0.00 80 1014.9
20200803085045 76 171 0.0 0.0 0.00 0.00 0.00 79 1015.0
20200803084033 76 177 0.0 0.9 0.00 0.00 0.00 80 1014.9
20200803083543 76 177 0.0 0.0 0.00 0.00 0.00 80 1014.8
20200803083134 76 225 0.0 0.0 0.00 0.00 0.00 80 1014.8
20200803082536 76 225 0.0 0.0 0.00 0.00 0.00 80 1014.8
20200803082037 76 225 0.0 0.0 0.00 0.00 0.00 79 1014.7
20200803081551 76 218 0.0 0.0 0.00 0.00 0.00 79 1014.6
20200803081030 76 219 0.0 0.0 0.00 0.00 0.00 79 1014.5
20200803080535 76 347 0.0 0.0 0.00 0.00 0.00 80 1014.3
20200803080038 77 347 0.0 0.0 0.00 0.00 0.00 81 1014.2
20200803075530 77 347 0.0 0.0 0.00 0.00 0.00 81 1014.0
20200803075040 77 347 0.0 0.0 0.00 0.00 0.00 81 1014.0
20200803074029 77 345 0.0 0.0 0.00 0.00 0.00 83 1014.0
20200803073555 77 345 0.0 0.0 0.00 0.00 0.00 83 1014.1
20200803073040 77 345 0.0 0.0 0.00 0.00 0.00 84 1014.1
20200803072527 77 345 0.0 0.0 0.00 0.00 0.00 85 1014.0
20200803072033 77 344 0.0 0.0 0.00 0.00 0.00 85 1014.0
20200803071631 77 345 0.0 0.0 0.00 0.00 0.00 86 1014.1
20200803071026 77 345 0.0 0.0 0.00 0.00 0.00 86 1014.0
20200803070524 77 345 0.0 0.0 0.00 0.00 0.00 86 1014.0
20200803070024 77 344 0.0 0.0 0.00 0.00 0.00 87 1014.0
20200803065528 78 345 0.0 0.0 0.00 0.00 0.00 87 1013.8
20200803065027 78 344 0.0 0.0 0.00 0.00 0.00 87 1013.8
20200803064017 78 344 0.0 0.0 0.00 0.00 0.00 87 1013.8
20200803063515 78 345 0.0 0.0 0.00 0.00 0.00 87 1013.9
20200803063052 78 345 0.0 0.0 0.00 0.00 0.00 87 1013.9
20200803062521 79 344 0.0 0.0 0.00 0.00 0.00 87 1013.9
20200803062021 79 345 0.0 0.0 0.00 0.00 0.00 87 1013.8
20200803061537 79 344 0.0 0.0 0.00 0.00 0.00 87 1013.7
20200803061022 79 344 0.0 0.0 0.00 0.00 0.00 87 1013.7
20200803060518 79 345 0.0 0.0 0.00 0.00 0.00 87 1013.7
20200803060011 79 345 0.0 0.9 0.00 0.00 0.00 87 1013.6
20200803055511 80 345 0.0 0.9 0.00 0.00 0.00 87 1013.6
20200803055012 80 1 0.0 0.0 0.00 0.00 0.00 88 1013.6
20200803054013 80 1 0.0 0.9 0.00 0.00 0.00 88 1013.6
20200803053526 80 1 0.0 0.9 0.00 0.00 0.00 88 1013.6
20200803053040 80 356 0.0 0.9 0.00 0.00 0.00 88 1013.6
20200803052516 80 356 0.0 0.9 0.00 0.00 0.00 88 1013.4
20200803052010 80 356 0.0 0.9 0.00 0.00 0.00 88 1013.4
20200803051511 80 356 0.0 0.0 0.00 0.00 0.00 88 1013.4
20200803051010 80 356 0.0 0.9 0.00 0.00 0.00 88 1013.3
20200803050509 80 356 0.0 0.9 0.00 0.00 0.00 88 1013.4
20200803050025 81 356 0.0 0.0 0.00 0.00 0.00 87 1013.5
20200803045508 81 356 0.0 0.0 0.00 0.00 0.00 87 1013.5
20200803045007 81 356 0.0 0.0 0.00 0.00 0.00 87 1013.5
20200803044025 81 356 0.0 0.0 0.00 0.00 0.00 86 1013.5
20200803043508 81 356 0.0 0.9 0.00 0.00 0.00 86 1013.5
20200803043008 81 34 0.0 0.9 0.00 0.00 0.00 86 1013.4
20200803042511 81 34 0.0 0.9 0.00 0.00 0.00 86 1013.4
20200803042006 81 338 0.0 0.9 0.00 0.00 0.00 86 1013.3
20200803041507 82 339 0.0 0.9 0.00 0.00 0.00 86 1013.2
20200803041006 82 340 0.0 0.9 0.00 0.00 0.00 86 1013.1
20200803040511 82 340 0.0 0.9 0.00 0.00 0.00 86 1013.1
20200803040003 82 332 0.0 0.9 0.00 0.00 0.00 85 1013.0
20200803035600 82 244 0.0 0.9 0.00 0.00 0.00 85 1012.9
20200803035108 82 244 0.0 0.9 0.00 0.00 0.00 85 1012.9
20200803035002 82 245 0.0 0.9 0.00 0.00 0.00 85 1012.8
20200803034102 82 353 0.0 0.9 0.00 0.00 0.00 84 1012.9
20200803033555 82 354 0.0 1.7 0.00 0.00 0.00 84 1012.9
20200803033207 82 50 0.0 0.9 0.00 0.00 0.00 84 1012.9
20200803032554 83 120 0.0 0.9 0.00 0.00 0.00 84 1012.8
20200803032054 83 120 0.0 0.9 0.00 0.00 0.00 83 1012.8
20200803031736 83 131 0.0 0.9 0.00 0.00 0.00 83 1012.8
20200803031055 83 77 0.0 0.9 0.00 0.00 0.00 83 1012.8
20200803030613 83 96 0.0 0.9 0.00 0.00 0.00 83 1012.9
20200803030106 83 186 0.0 0.9 0.00 0.00 0.00 82 1012.8
20200803025608 83 67 0.0 0.9 0.00 0.00 0.00 82 1012.7
20200803025053 83 139 0.0 2.6 0.00 0.00 0.00 82 1012.6
20200803024001 84 8 0.0 0.9 0.00 0.00 0.00 82 1012.5
20200803023501 84 78 0.0 0.9 0.00 0.00 0.00 82 1012.6
20200803023003 84 78 0.0 1.7 0.00 0.00 0.00 82 1012.5
20200803022508 84 37 0.0 1.7 0.00 0.00 0.00 82 1012.5
20200803022006 84 23 0.0 1.7 0.00 0.00 0.00 82 1012.4
20200803021658 84 23 0.0 1.7 0.00 0.00 0.00 82 1012.4
20200803021105 84 36 0.0 1.7 0.00 0.00 0.00 82 1012.4
20200803021003 84 79 0.0 0.9 0.00 0.00 0.00 83 1012.4
20200803020503 85 358 0.0 0.9 0.00 0.00 0.00 83 1012.3
20200803015605 85 23 0.0 0.9 0.00 0.00 0.00 83 1012.4
20200803015120 85 26 0.0 0.9 0.00 0.00 0.00 83 1012.4
20200803014004 85 116 0.0 3.5 0.00 0.00 0.00 82 1012.3
20200803013512 85 204 0.0 2.6 0.00 0.00 0.00 81 1012.2
20200803013010 86 347 0.0 1.7 0.00 0.00 0.00 80 1012.1
20200803012521 86 50 0.0 2.6 0.00 0.00 0.00 79 1012.0
20200803012003 86 39 0.0 2.6 0.00 0.00 0.00 78 1011.9
20200803011504 86 29 0.0 2.6 0.00 0.00 0.00 77 1011.9
20200803011003 86 183 0.0 1.7 0.00 0.00 0.00 77 1011.9
20200803010503 86 61 0.0 1.7 0.00 0.00 0.00 76 1011.9
20200803010021 86 42 0.0 2.6 0.00 0.00 0.00 75 1011.8
20200803005506 86 108 0.0 2.6 0.00 0.00 0.00 74 1011.8
20200803005004 86 15 0.0 1.7 0.00 0.00 0.00 74 1011.7
20200803004007 86 205 0.0 0.9 0.00 0.00 0.00 73 1011.6
20200803003509 86 46 0.0 0.9 0.00 0.00 0.00 73 1011.5
20200803003007 86 44 0.0 0.9 0.00 0.00 0.00 72 1011.3
20200803002507 86 37 0.0 4.3 0.00 0.00 0.00 72 1011.4
20200803002006 87 13 0.0 4.3 0.00 0.00 0.00 72 1011.3
20200803001523 87 98 0.0 1.7 0.00 0.00 0.00 72 1011.3
20200803001024 87 65 0.0 3.5 0.00 0.00 0.00 72 1011.4
20200803000510 87 226 0.0 3.5 0.00 0.00 0.00 72 1011.3
20200803000012 87 48 0.0 3.5 0.00 0.00 0.00 71 1011.3
20200802235506 88 44 0.0 2.6 0.00 0.00 0.00 71 1011.3
20200802235024 88 340 0.0 1.7 0.00 0.00 0.00 71 1011.3
20200802234100 87 225 0.0 2.6 0.00 0.00 0.00 70 1011.3
20200802233600 88 68 0.0 3.5 0.00 0.00 0.00 70 1011.2
20200802233239 88 70 0.0 3.5 0.00 0.00 0.00 70 1011.2
20200802232600 88 351 0.0 2.6 0.00 0.00 0.00 71 1011.1
20200802232142 88 131 0.0 1.7 0.00 0.00 0.00 72 1011.1
20200802231628 88 41 0.0 1.7 0.00 0.00 0.00 71 1011.1
20200802231059 89 34 0.0 1.7 0.00 0.00 0.00 71 1011.0
20200802230608 89 333 0.0 1.7 0.00 0.00 0.00 71 1010.9
20200802230230 89 4 0.0 4.3 0.00 0.00 0.00 70 1010.8
20200802225559 89 46 0.0 4.3 0.00 0.00 0.00 70 1010.7
20200802225059 89 63 0.0 3.5 0.00 0.00 0.00 71 1010.7
20200802224013 89 114 0.0 3.5 0.00 0.00 0.00 70 1010.6
20200802223524 89 248 0.0 3.5 0.00 0.00 0.00 69 1010.7
20200802223020 89 108 0.0 3.5 0.00 0.00 0.00 69 1010.7
20200802222513 89 323 0.0 3.5 0.00 0.00 0.00 68 1010.7
20200802222014 89 25 0.0 3.5 0.00 0.00 0.00 68 1010.7
20200802221608 89 316 0.0 2.6 0.00 0.00 0.00 69 1010.7
20200802221017 89 5 0.0 2.6 0.00 0.00 0.00 68 1010.6
20200802220532 90 40 0.0 5.2 0.00 0.00 0.00 68 1010.6
20200802220012 90 60 0.0 5.2 0.00 0.00 0.00 66 1010.6
20200802215515 90 26 0.0 3.5 0.00 0.00 0.00 66 1010.6
20200802215015 90 47 0.0 3.5 0.00 0.00 0.00 65 1010.6
20200802214002 91 88 0.0 2.6 0.00 0.00 0.00 67 1010.5
20200802213502 91 34 0.0 2.6 0.00 0.00 0.00 66 1010.6
20200802213008 91 11 0.0 4.3 0.00 0.00 0.00 68 1010.5
20200802212503 91 280 0.0 5.2 0.00 0.00 0.00 67 1010.6
20200802212007 91 51 0.9 5.2 0.00 0.00 0.00 66 1010.7
20200802211508 90 251 0.0 4.3 0.00 0.00 0.00 67 1010.6
20200802211001 90 36 0.0 3.5 0.00 0.00 0.00 68 1010.7
20200802210507 90 255 0.0 3.5 0.00 0.00 0.00 68 1010.7
20200802205506 90 250 0.0 5.2 0.00 0.00 0.00 68 1010.6
20200802205100 90 193 0.0 4.3 0.00 0.00 0.00 67 1010.5
20200802205009 90 195 0.9 4.3 0.00 0.00 0.00 67 1010.6
20200802204042 91 108 0.0 4.3 0.00 0.00 0.00 68 1010.5
20200802203542 91 112 0.0 4.3 0.00 0.00 0.00 68 1010.4
20200802203205 91 332 0.9 4.3 0.00 0.00 0.00 68 1010.4
20200802202544 91 68 0.0 2.6 0.00 0.00 0.00 68 1010.3
20200802202043 91 297 0.0 2.6 0.00 0.00 0.00 69 1010.4
20200802201620 91 50 0.0 4.3 0.00 0.00 0.00 67 1010.4
20200802201041 91 92 0.0 4.3 0.00 0.00 0.00 68 1010.6
20200802200540 91 5 0.9 6.1 0.00 0.00 0.00 65 1010.6
20200802200118 91 293 0.9 6.1 0.00 0.00 0.00 66 1010.6
20200802195553 91 72 0.0 4.3 0.00 0.00 0.00 67 1010.6
20200802195040 91 74 0.0 4.3 0.00 0.00 0.00 66 1010.6
20200802194039 91 97 0.9 7.8 0.00 0.00 0.00 67 1010.7
20200802193545 91 284 0.9 3.5 0.00 0.00 0.00 68 1010.8
20200802193056 91 1 0.0 2.6 0.00 0.00 0.00 69 1010.9
20200802192548 91 8 0.0 2.6 0.00 0.00 0.00 69 1010.9
20200802192038 91 86 0.0 2.6 0.00 0.00 0.00 70 1010.8
20200802191547 91 323 0.0 2.6 0.00 0.00 0.00 70 1010.8
20200802191036 91 36 0.0 2.6 0.00 0.00 0.00 71 1010.9
20200802190537 91 70 0.0 1.7 0.00 0.00 0.00 71 1011.0
20200802190042 91 50 0.0 3.5 0.00 0.00 0.00 72 1010.9
20200802185534 92 84 0.9 4.3 0.00 0.00 0.00 70 1011.0
20200802185042 92 43 0.0 4.3 0.00 0.00 0.00 70 1011.0
20200802184042 91 288 0.0 2.6 0.00 0.00 0.00 69 1011.1
20200802183536 91 15 0.0 2.6 0.00 0.00 0.00 71 1011.1
20200802183039 91 232 0.0 4.3 0.00 0.00 0.00 70 1011.2
20200802182552 91 63 0.0 4.3 0.00 0.00 0.00 73 1011.3
20200802182032 90 29 0.0 3.5 0.00 0.00 0.00 72 1011.2
20200802181612 90 34 0.0 3.5 0.00 0.00 0.00 72 1011.3
20200802181034 90 85 0.9 2.6 0.00 0.00 0.00 72 1011.3
20200802180530 91 76 0.0 3.5 0.00 0.00 0.00 73 1011.4
20200802180045 90 84 0.0 2.6 0.00 0.00 0.00 73 1011.4
20200802175532 90 352 0.0 2.6 0.00 0.00 0.00 71 1011.5
20200802175033 91 44 0.0 4.3 0.00 0.00 0.00 69 1011.4
20200802174020 91 44 0.0 3.5 0.00 0.00 0.00 71 1011.4
20200802173539 91 108 0.0 3.5 0.00 0.00 0.00 71 1011.5
20200802173021 91 97 0.0 3.5 0.00 0.00 0.00 72 1011.4
20200802172524 91 131 0.0 2.6 0.00 0.00 0.00 72 1011.5
20200802172026 91 109 0.0 2.6 0.00 0.00 0.00 74 1011.5
20200802171518 90 11 0.0 1.7 0.00 0.00 0.00 74 1011.7
20200802171032 89 90 0.0 1.7 0.00 0.00 0.00 76 1011.7
20200802170514 89 63 0.0 6.1 0.00 0.00 0.00 76 1011.8
20200802170014 88 35 0.9 6.1 0.00 0.00 0.00 76 1011.8
20200802165510 87 348 0.0 2.6 0.00 0.00 0.00 78 1011.8
20200802165010 87 26 0.0 2.6 0.00 0.00 0.00 78 1011.9
20200802164017 87 80 0.0 3.5 0.00 0.00 0.00 78 1012.0
20200802163525 87 25 0.0 0.9 0.00 0.00 0.00 78 1012.0
20200802163048 87 44 0.0 0.9 0.00 0.00 0.00 77 1012.1
20200802162522 87 348 0.0 0.9 0.00 0.00 0.00 79 1012.2
20200802162018 87 15 0.0 4.3 0.00 0.00 0.00 78 1012.2
20200802161547 88 7 0.0 0.9 0.00 0.00 0.00 80 1012.3
20200802161013 87 96 0.0 0.9 0.00 0.00 0.00 81 1012.4
20200802160533 87 133 0.0 2.6 0.00 0.00 0.00 80 1012.5
20200802160013 87 116 0.9 2.6 0.00 0.00 0.00 79 1012.5
20200802155510 86 80 0.0 1.7 0.00 0.00 0.00 80 1012.5
20200802155009 86 11 0.0 1.7 0.00 0.00 0.00 81 1012.5
20200802154008 85 18 0.0 1.7 0.00 0.00 0.00 81 1012.6
20200802153510 85 86 0.0 1.7 0.00 0.00 0.00 81 1012.6
20200802153019 86 79 0.0 1.7 0.00 0.00 0.00 82 1012.7
20200802152510 85 330 0.0 1.7 0.00 0.00 0.00 82 1012.6
20200802152009 85 116 0.0 4.3 0.00 0.00 0.00 84 1012.6
20200802151504 83 20 0.0 4.3 0.00 0.00 0.00 86 1012.6
20200802151002 83 61 0.0 1.7 0.00 0.00 0.00 87 1012.7
20200802150115 83 13 0.0 1.7 0.00 0.00 0.00 87 1012.8
20200802145604 82 64 0.0 1.7 0.00 0.00 0.00 88 1012.8
20200802145119 82 58 0.0 0.9 0.00 0.00 0.00 88 1012.9